Location: Bakhuizen
(52.8696°N, 5.4575°E)
Time: 22:04:45
(UTC+00:00)

Cosmos 1340 Rocket - Pass Details

Date: 11 May 2021
Orbit: 527 x 559 km, 81.2° (Epoch: 24 June)

Event Time Altitude Azimuth Distance (km) Brightness Sun altitude
Rises 20:47:39 0° 354° (N) 2,762 7.4 -10.4°
Reaches altitude 10° 20:50:07 10° 7° (N) 1,862 6.2 -10.6°
Maximum altitude 20:53:37 26° 65° (ENE) 1,119 4.3 -11.0°
Enters shadow 20:56:20 14° 117° (ESE) 1,607 4.6 -11.2°
